Gilze-Rijen, Netherlands

2:27 AM CEST on April 24, 2017 (GMT +0200)
Gilze-Rijen Air Base

Weather History for EHGR - February, 2014

Change the Weather History Date:

Friday, February 28, 2014

  Actual Average Record
Temperature  
Mean Temperature 42 °F -  
Max Temperature 49 °F 49 °F 59 °F (1997)
Min Temperature 36 °F 35 °F 19 °F (2004)
Degree Days  
Heating Degree Days 22    
Moisture  
Dew Point 38 °F    
Average Humidity 84    
Maximum Humidity 100    
Minimum Humidity 45    
Precipitation  
Precipitation 0.02 in - - ()
Sea Level Pressure  
Sea Level Pressure 29.57 in    
Wind  
Wind Speed 8 mph ()    
Max Wind Speed 14 mph    
Max Gust Speed -    
Visibility 6.5 miles    
Events Rain    
Averages and records for this station are not official NWS values.
T = Trace of Precipitation, MM = Missing Value Source: Averaged Metar Reports

Daily Weather History Graph

Daily Weather History Graph

Search for Another Location

Airport or City:

Trip Planner

Search our weather history database for the weather conditions in past years. The results will help you decide how hot, cold, wet, or windy it might be!

Date:

Astronomy

Feb. 28, 2014 Rise Set
Actual Time 7:28 AM CET 6:18 PM CET
Civil Twilight 6:54 AM CET 6:52 PM CET
Nautical Twilight 6:15 AM CET 7:30 PM CET
Astronomical Twilight 5:37 AM CET 8:09 PM CET
Moon 6:35 AM CET (2/28) 5:36 PM CET (2/28)
Length of Visible Light 11h 57m
Length of Day
10h 50m
Waning Crescent, 1% of the Moon is Illuminated
Feb 28
Waning Crescent
Mar 1
New
Mar 8
First Quarter
Mar 16
Full
Mar 24
Last Quarter

Hourly Weather History & Observations

Time (CET) Temp. Windchill Dew Point Humidity Pressure Visibility Wind Dir Wind Speed Gust Speed Precip Events Conditions
12:00 AM 40 °F - 38 °F 91% 29.74 in 7 mi SSW 8.9 mph - -   Scattered Clouds
12:25 AM 39.2 °F 33.6 °F 37.4 °F 93% 29.71 in 6.2 mi SSW 8.1 mph - N/A   Partly Cloudy
12:55 AM 39.2 °F 33.6 °F 37.4 °F 93% 29.71 in 6.2 mi SSW 8.1 mph - N/A   Partly Cloudy
1:00 AM 39 °F - 38 °F 92% 29.73 in 7 mi SSW 8.9 mph - -   Partly Cloudy
1:25 AM 39.2 °F 33.6 °F 37.4 °F 93% 29.71 in 6.2 mi SSW 8.1 mph - N/A   Mostly Cloudy
1:55 AM 39.2 °F 33.6 °F 37.4 °F 93% 29.71 in 6.2 mi SSW 8.1 mph - N/A   Partly Cloudy
2:00 AM 39 °F - 38 °F 92% 29.71 in 6 mi SSW 8.9 mph - -   Scattered Clouds
2:25 AM 39.2 °F 33.6 °F 37.4 °F 93% 29.68 in 5.6 mi SSW 8.1 mph - N/A   Mist
2:55 AM 37.4 °F 31.4 °F 37.4 °F 100% 29.68 in 5.6 mi SSW 8.1 mph - N/A   Mist
3:00 AM 37 °F - 36 °F 94% 29.70 in 6 mi South 8.9 mph - -   Mist
3:25 AM 37.4 °F 32.1 °F 35.6 °F 93% 29.68 in 6.2 mi South 6.9 mph - N/A   Scattered Clouds
3:55 AM 37.4 °F 31.4 °F 35.6 °F 93% 29.65 in 5.6 mi South 8.1 mph - N/A   Mostly Cloudy
4:00 AM 37 °F - 36 °F 97% 29.68 in 6 mi South 6.7 mph - -   Mist
4:04 AM 37.4 °F 32.1 °F 37.4 °F 100% 29.65 in 5.6 mi South 6.9 mph - N/A   Mostly Cloudy
4:11 AM 37.4 °F 32.1 °F 37.4 °F 100% 29.65 in 5.0 mi South 6.9 mph - N/A   Mostly Cloudy
4:25 AM 39.2 °F 34.2 °F 37.4 °F 93% 29.65 in 5.6 mi South 6.9 mph - N/A   Overcast
4:38 AM 39.2 °F 35.0 °F 37.4 °F 93% 29.65 in 6.2 mi South 5.8 mph - N/A   Overcast
4:55 AM 39.2 °F 33.6 °F 37.4 °F 93% 29.65 in 5.6 mi South 8.1 mph - N/A   Light Drizzle
5:00 AM 40 °F - 38 °F 92% 29.66 in 6 mi South 8.9 mph - - Rain Drizzle
5:20 AM 39.2 °F 33.0 °F 39.2 °F 100% 29.65 in 6.2 mi South 9.2 mph - N/A   Mostly Cloudy
5:25 AM 39.2 °F 33.0 °F 39.2 °F 100% 29.65 in 6.2 mi SSW 9.2 mph - N/A   Overcast
5:29 AM 39.2 °F 33.0 °F 39.2 °F 100% 29.65 in 6.2 mi SSW 9.2 mph - N/A   Mostly Cloudy
5:47 AM 39.2 °F 33.6 °F 37.4 °F 93% 29.62 in 5.6 mi South 8.1 mph - N/A   Overcast
5:55 AM 39.2 °F 34.2 °F 37.4 °F 93% 29.62 in 5.6 mi SSE 6.9 mph - N/A   Mostly Cloudy
6:00 AM 38 °F - 37 °F 96% 29.63 in 6 mi SSE 6.7 mph - - Rain Drizzle
6:25 AM 37.4 °F 32.8 °F 37.4 °F 100% 29.62 in 6.2 mi SSE 5.8 mph - N/A   Scattered Clouds
6:39 AM 37.4 °F 32.8 °F 37.4 °F 100% 29.59 in 6.2 mi SSE 5.8 mph - N/A   Partly Cloudy
6:41 AM 37.4 °F 32.1 °F 37.4 °F 100% 29.59 in 6.2 mi South 6.9 mph - N/A   Scattered Clouds
6:55 AM 39.2 °F 34.2 °F 37.4 °F 93% 29.59 in 6.2 mi SSE 6.9 mph - N/A   Mostly Cloudy
7:00 AM 39 °F - 38 °F 95% 29.62 in 6 mi South 6.7 mph - -   Partly Cloudy
7:10 AM 39.2 °F 34.2 °F 39.2 °F 100% 29.59 in 6.2 mi SSE 6.9 mph - N/A   Overcast
7:14 AM 39.2 °F 34.2 °F 39.2 °F 100% 29.59 in 6.2 mi SSE 6.9 mph - N/A   Overcast
7:19 AM 39.2 °F 33.6 °F 39.2 °F 100% 29.59 in 6.2 mi SSE 8.1 mph - N/A   Overcast
7:25 AM 39.2 °F 33.6 °F 39.2 °F 100% 29.59 in 6.2 mi SSE 8.1 mph - N/A   Overcast
7:38 AM 39.2 °F 34.2 °F 37.4 °F 93% 29.59 in 6.2 mi SSE 6.9 mph - N/A   Overcast
7:50 AM 41.0 °F 37.1 °F 37.4 °F 87% 29.59 in 6.2 mi SSE 5.8 mph - N/A   Overcast
7:55 AM 39.2 °F 35.0 °F 37.4 °F 93% 29.59 in 6.2 mi SSE 5.8 mph - N/A   Mostly Cloudy
8:00 AM 40 °F - 38 °F 89% 29.60 in 9 mi SSE 4.5 mph - -   Overcast
8:00 AM 39.2 °F 35.0 °F 37.4 °F 93% 29.59 in 6.2 mi SSE 5.8 mph - N/A   Mostly Cloudy
8:19 AM 41.0 °F 38.0 °F 37.4 °F 87% 29.59 in 6.2 mi SE 4.6 mph - N/A   Overcast
8:25 AM 41.0 °F 37.1 °F 39.2 °F 93% 29.59 in 6.2 mi SE 5.8 mph - N/A   Overcast
8:37 AM 41.0 °F 36.4 °F 39.2 °F 93% 29.59 in 6.2 mi SE 6.9 mph - N/A   Overcast
8:41 AM 41.0 °F 36.4 °F 39.2 °F 93% 29.56 in 6.2 mi SE 6.9 mph - N/A   Overcast
8:46 AM 41.0 °F 37.1 °F 39.2 °F 93% 29.56 in 6.2 mi SE 5.8 mph - N/A   Overcast
8:55 AM 41.0 °F 36.4 °F 39.2 °F 93% 29.56 in 6.2 mi SE 6.9 mph - N/A   Mostly Cloudy
9:00 AM 42 °F - 40 °F 88% 29.58 in 8 mi SSE 6.7 mph - -   Overcast
9:25 AM 42.8 °F 37.5 °F 39.2 °F 87% 29.56 in 6.2 mi SSE 9.2 mph - N/A   Scattered Clouds
9:30 AM 42.8 °F 37.5 °F 39.2 °F 87% 29.56 in 6.2 mi SSE 9.2 mph - N/A   Scattered Clouds
9:55 AM 42.8 °F 37.5 °F 37.4 °F 81% 29.56 in 6.2 mi SSE 9.2 mph - N/A   Scattered Clouds
10:00 AM 44 °F - 39 °F 76% 29.57 in 12 mi SSE 8.9 mph - -   Partly Cloudy
10:03 AM 44.6 °F 39.7 °F 39.2 °F 81% 29.56 in 6.2 mi SSE 9.2 mph - N/A   Scattered Clouds
10:12 AM 44.6 °F 39.2 °F 39.2 °F 81% 29.56 in 6.2 mi SSE 10.4 mph - N/A   Scattered Clouds
10:20 AM 44.6 °F 39.2 °F 39.2 °F 81% 29.56 in 6.2 mi SSE 10.4 mph - N/A   Partly Cloudy
10:25 AM 44.6 °F 38.8 °F 37.4 °F 76% 29.56 in 6.2 mi SSE 11.5 mph - N/A   Scattered Clouds
10:42 AM 44.6 °F 38.8 °F 39.2 °F 81% 29.53 in 6.2 mi SSE 11.5 mph - N/A   Mostly Cloudy
10:55 AM 44.6 °F 38.4 °F 37.4 °F 76% 29.53 in 6.2 mi South 12.7 mph - N/A   Partly Cloudy
11:00 AM 45 °F - 37 °F 64% 29.56 in 18 mi SSE 13.4 mph - -   Scattered Clouds
11:14 AM 46.4 °F 41.1 °F 37.4 °F 71% 29.53 in 6.2 mi SSE 11.5 mph - N/A   Mostly Cloudy
11:25 AM 46.4 °F 41.1 °F 37.4 °F 71% 29.53 in 6.2 mi SSE 11.5 mph - N/A   Partly Cloudy
11:29 AM 46.4 °F 41.1 °F 37.4 °F 71% 29.53 in 6.2 mi SSE 11.5 mph - N/A   Scattered Clouds
11:55 AM 46.4 °F 41.1 °F 37.4 °F 71% 29.53 in 6.2 mi SSE 11.5 mph - N/A   Overcast
11:58 AM 46.4 °F 41.1 °F 37.4 °F 71% 29.53 in 6.2 mi SSE 11.5 mph - N/A   Mostly Cloudy
12:00 PM 46 °F - 37 °F 60% 29.55 in 22 mi South 11.2 mph - -   Partly Cloudy
12:25 PM 46.4 °F 40.7 °F 35.6 °F 66% 29.53 in 6.2 mi South 12.7 mph - N/A   Overcast
12:55 PM 46.4 °F 41.9 °F 37.4 °F 71% 29.53 in 6.2 mi South 9.2 mph - N/A   Overcast
1:00 PM 47 °F - 36 °F 57% 29.54 in 25 mi SSE 11.2 mph - -   Partly Cloudy
1:25 PM 46.4 °F 41.9 °F 35.6 °F 66% 29.53 in 6.2 mi SSE 9.2 mph - N/A   Overcast
1:45 PM 46.4 °F 42.4 °F 35.6 °F 66% 29.50 in 6.2 mi SE 8.1 mph - N/A   Overcast
1:55 PM 46.4 °F 42.4 °F 35.6 °F 66% 29.50 in 6.2 mi ESE 8.1 mph - N/A   Overcast
2:00 PM 47 °F - 37 °F 57% 29.52 in 22 mi ESE 6.7 mph - -   Overcast
2:25 PM 48.2 °F - 35.6 °F 62% 29.50 in 6.2 mi ESE 8.1 mph - N/A   Mostly Cloudy
2:55 PM 48.2 °F - 37.4 °F 66% 29.50 in 6.2 mi East 8.1 mph - N/A   Overcast
3:00 PM 49 °F - 36 °F 50% 29.51 in 22 mi ESE 8.9 mph - -   Overcast
3:25 PM 50.0 °F - 35.6 °F 58% 29.50 in 6.2 mi East 10.4 mph - N/A   Mostly Cloudy
3:40 PM 48.2 °F - 33.8 °F 58% 29.50 in 6.2 mi ESE 11.5 mph - N/A   Mostly Cloudy
3:55 PM 48.2 °F - 35.6 °F 62% 29.50 in 6.2 mi ESE 10.4 mph - N/A   Mostly Cloudy
4:00 PM 49 °F - 34 °F 45% 29.50 in 25 mi ESE 11.2 mph - -   Scattered Clouds
4:25 PM 48.2 °F - 33.8 °F 58% 29.50 in 6.2 mi ESE 13.8 mph - N/A   Mostly Cloudy
4:55 PM 46.4 °F 41.5 °F 35.6 °F 66% 29.50 in 6.2 mi ESE 10.4 mph - N/A Rain Light Rain
5:00 PM 46 °F - 36 °F 59% 29.51 in 22 mi ESE 8.9 mph - - Rain Light Rain Showers
5:25 PM 46.4 °F 41.9 °F 37.4 °F 71% 29.50 in 6.2 mi ESE 9.2 mph - N/A   Drizzle
5:55 PM 44.6 °F 40.7 °F 37.4 °F 76% 29.50 in 6.2 mi ESE 6.9 mph - N/A Rain Light Rain
6:00 PM 45 °F - 38 °F 70% 29.51 in 12 mi East 8.9 mph - - Rain Light Rain
6:25 PM 44.6 °F 41.4 °F 39.2 °F 81% 29.50 in 6.2 mi ESE 5.8 mph - N/A   Drizzle
6:55 PM 42.8 °F 39.3 °F 39.2 °F 87% 29.50 in 6.2 mi ESE 5.8 mph - N/A Rain Heavy Drizzle
7:00 PM 43 °F - 39 °F 82% 29.52 in 8 mi ESE 6.7 mph - - Rain Heavy Rain
7:25 PM 42.8 °F 38.6 °F 41.0 °F 93% 29.50 in 6.2 mi East 6.9 mph - N/A   Light Drizzle
7:47 PM 42.8 °F 38.6 °F 41.0 °F 93% 29.50 in 6.2 mi East 6.9 mph - N/A Rain Light Rain
7:55 PM 42.8 °F 39.3 °F 41.0 °F 93% 29.50 in 6.2 mi East 5.8 mph - N/A Rain Drizzle
7:59 PM 42.8 °F 39.3 °F 41.0 °F 93% 29.50 in 6.2 mi East 5.8 mph - N/A Rain Light Rain
8:00 PM 43 °F - 40 °F 86% 29.52 in 8 mi East 6.7 mph - - Rain Heavy Rain
8:25 PM 42.8 °F 39.3 °F 41.0 °F 93% 29.50 in 6.2 mi ENE 5.8 mph - N/A   Drizzle
8:55 PM 42.8 °F 38.6 °F 41.0 °F 93% 29.50 in 6.2 mi ENE 6.9 mph - N/A Rain Light Rain
9:00 PM 43 °F - 40 °F 85% 29.52 in 7 mi ENE 6.7 mph - - Rain Light Rain
9:25 PM 42.8 °F 38.6 °F 41.0 °F 93% 29.50 in 6.2 mi ENE 6.9 mph - N/A Rain Light Rain
9:55 PM 42.8 °F 38.0 °F 41.0 °F 93% 29.50 in 6.2 mi ENE 8.1 mph - N/A Rain Light Rain Showers
10:00 PM 43 °F - 40 °F 86% 29.52 in 7 mi ENE 6.7 mph - - Rain Light Rain
10:25 PM 42.8 °F 39.3 °F 39.2 °F 87% 29.50 in 6.2 mi ENE 5.8 mph - N/A   Light Drizzle
10:55 PM 42.8 °F 38.6 °F 39.2 °F 87% 29.50 in 6.2 mi East 6.9 mph - N/A   Light Drizzle
11:00 PM 43 °F - 40 °F 85% 29.52 in 11 mi East 6.7 mph - - Rain Light Drizzle
11:25 PM 42.8 °F 38.6 °F 41.0 °F 93% 29.50 in 6.2 mi East 6.9 mph - N/A   Drizzle
11:55 PM 42.8 °F 38.6 °F 41.0 °F 93% 29.50 in 6.2 mi East 6.9 mph - N/A Rain Light Rain